sat.trackr.live / text

‹ back to catalog

SHIYAN-28B 02

NORAD 65226 · 2025-177A

PAYLOAD ACTIVE UNKNOWN

§ Identity

Operator
Country
PRC
Launch date
2025-08-17
Launch site
XICLF
Launch vehicle
Mass (kg)
RCS (m²)

External: N2YO · Heavens-Above · Gunter

§ Orbital elements

Epoch: 2026-09-19T22:35:12.319584Z

Period
100.74 min
Inclination
11.0001°
Eccentricity
0.0003120
Mean motion
14.29422009 rev/d
Perigee alt
791.4 km
Apogee alt
795.9 km
Semi-major
7,171.8 km
B*
4.2638e-5
RAAN
36.1964°
Arg perigee
61.8723°
Mean anomaly
298.1820°
Rev number
5,711

§ Raw data

SHIYAN-28B 021 65226U 25177A   26262.94111481  .00000542  00000+0  42638-4 0  99972 65226  11.0001  36.1964 0003120  61.8723 298.1820 14.29422009 57115

JSON: /api/v1/satellites/65226 · /tle

For live sub-satellite position, see the globe view (requires WebGL).

§ Visibility from observer

Set your observer location to see the next 7 days of passes ≥ 10°. The values pass through the URL so the page stays shareable.

No JS? Fill the form by hand. The geolocation button needs JavaScript.